Weather in Sentyabr'sky

Russia / Khanty-Mansi Autonomous Okrug — Yugra     60°29′34″N   72°12′32″E
temp.,
°C
wind,
m/s
gust,
m/s
humid.,
%
clouds,
%
prec.,
mm/h
press.,
hPa
HPBL,
m
25 february, thu
thu2523:00−32nne399788 0.0 1024222
02:00−33nne499733 0.0 1022204
05:00−34nne389747 0.0 1021212
08:00−33nne399892 0.0 1020260
11:00−29n479392 0.0 1020318
14:00−27n489279 0.0 1019391
17:00−29n489487 0.0 1021357
20:00−33nnw379833 0.0 1022152
26 february, fri
fri2623:00−34nnw249839 0.0 102384
02:00−34nw239847 0.0 102448
05:00−34nw229844 0.0 102636
08:00−34nw229878 0.0 102641
11:00−28wnw228962 0.0 1027288
14:00−24wnw2389100 0.0 1028389
17:00−26w1296100 0.0 102819
20:00−29wsw12981 0.0 102919
27 february, sat
sat2723:00−29sw229935 0.0 103020
02:00−30wsw229853 0.0 102919
05:00−31sw229826 0.0 103019
08:00−30ssw22980 0.0 103035
11:00−23ssw239010 0.0 1030249
14:00−20ssw239085 0.0 1030360
17:00−22s239675 0.0 103039
20:00−26sse23970 0.0 103051
28 february, sun
sun2823:00−27s23980 0.0 103069
02:00−28sse23980 0.0 102969
05:00−29sse369819 0.0 1029117
08:00−27se389594 0.0 1027208
11:00−22se489293 0.0 1026263
14:00−18se488651 0.0 1024358
17:00−19ese499159 0.0 1022384
20:00−19ese41095100 0.1 1021352
1 march, mon
mon123:00−19ese4896100 0.4 1019377
02:00−19ese3697100 0.3 1018329
05:00−20e3697100 0.8 1017304
08:00−20e2597100 0.4 1016259
11:00−17e2393100 0.9 1015317
14:00−15e2290100 0.4 1014416
17:00−15se1296100 0.8 1013138
20:00−18s1298100 0.2 101220